Location: ???? ???? ?????
(31.2680°N, 31.7283°E)
Time: 09:09:05
(UTC+00:00)

ATLAS CENTAUR R/B - Pass Details

Date: 13 July 2020
Orbit: 475 x 672 km, 64.7° (Epoch: 13 July)

Event Time Altitude Azimuth Distance (km) Brightness Sun altitude
Rises 17:23:15 0° 353° (N) 2,533 5.3 -5.4°
Reaches altitude 10° 17:26:11 10° 18° (NNE) 1,643 3.9 -5.9°
Maximum altitude 17:28:16 15° 53° (NE) 1,386 3.2 -6.3°
Drops below altitude 10° 17:30:21 10° 89° (E) 1,644 3.2 -6.7°
Enters shadow 17:31:14 - 99° (E) 1,873 3.4 -6.9°
